Location: Unspecified
(0.0000°N, 0.0000°E)
Time: 10:25:46
(UTC+00:00)

N. Korean satellite - Pass Details

Date: 01 February 2021
Orbit: 451 x 503 km, 97.2° (Epoch: 27 February)

Event Time Altitude Azimuth Distance (km) Brightness Sun altitude
Rises 04:56:10 0° 15° (NNE) 2,442 10.1 -18.5°
Reaches altitude 10° 04:58:11 10° 17° (NNE) 1,575 9.1 -18.0°
Maximum altitude 05:01:32 69° 101° (E) 489 6.7 -17.2°
Drops below altitude 10° 05:04:56 10° 185° (S) 1,598 9.3 -16.4°
Sets 05:07:00 0° 187° (S) 2,481 10.3 -15.9°
